www.pogodaiklimat.ru

Погода и климат >> Архив погоды >> Финляндия >> Круунупюу


ПОГОДА в Круунупюу

  • Прогноз погоды в Круунупюу
  • Монитор погоды в Круунупюу

АРХИВ ПОГОДЫ в Круунупюу

Время (UTC), дата Ветер
(напр.,м/с)
 
Видим.   Явления Облачность Т
(С)
Тd
(С)
f
(%)
Тe
(С)
Тes
(С)
Комфортность P
(гПа)
Po
(гПа)
Тmin
(С)
Tmax
(С)
R
(мм)
R24
(мм)
S
(см)
13 18.08 ЮВ 6 55 км 10/0 1000 м
[]
+18.3 +12.9 71 +18 +19 1008.9 1005.8
14 18.08 ЮВ 4 23 км ливневой дождь 9/0 1500 м
[]
+17.0 +15.1 89 +17 +18 1008.7 1005.5
15 18.08 ЮВ 5 45 км слаб. ливневой дождь 9/8 600 м
[]
+17.2 +14.9 86 +17 +17 1008.5 1005.3
16 18.08 ЮВ 5 50 км 9/8 1000 м
[]
+17.4 +15.0 86 +17 +17 1008.2 1005.0
17 18.08 ЮВ 5 45 км 10/0 1000 м
[]
+17.4 +14.8 85 +17 +17 1008.4 1005.2
18 18.08 ЮВ 6 50 км 9/9
[]
+17.1 +13.4 79 +16 +16 1008.0 1004.9 +16.5 +18.5
19 18.08 ЮВ 5 55 км в посл. час дождь 10/9 1000 м
[]
+16.2 +13.6 85 +15 +15 1007.9 1004.7
20 18.08 ЮВ 5 60 км в посл. час дождь 10/9 1000 м
[]
+16.6 +13.1 80 +16 +16 1007.3 1004.2
21 18.08 ЮВ 5 50 км в посл. час дождь 9/9 1500 м
[]
+16.2 +12.8 80 +15 +15 1006.8 1003.7
22 18.08 ЮВ 6 65 км 9/9
[]
+15.9 +11.3 74 +15 +15 1006.5 1003.3
23 18.08 ЮВ 5 65 км 6/3 1500 м
[]
+15.6 +10.8 73 +14 +14 1006.2 1003.0
00 19.08 ЮВ 5 50 км слаб. ливневой дождь 9/8 1000 м
[]
+14.7 +11.7 82 +13 +13 1005.3 1002.1
01 19.08 ЮВ 5 60 км 10/9 1500 м
[]
+15.3 +11.2 77 +14 +14 1004.6 1001.4
02 19.08 ЮВ 6 30 км слаб. ливневой дождь 10/4 1500 м
[]
+14.7 +11.7 82 +13 +13 1004.2 1001.1
03 19.08 ЮВ 5 21 км дождь 10/10 600 м
[]
+13.9 +12.8 93 +12 +12 1003.8 1000.6
04 19.08 ЮВ 5 15 км дождь 10/0 1500 м
[]
+13.6 +12.7 94 +12 +12 1003.0 999.9
05 19.08 В 5 27 км дождь 10/0
[]
+13.7 +12.6 93 +12 +12 1001.6 998.5
06 19.08 В 5 5000 м сильн. дождь 10/10 200 м
[]
+14.0 +13.2 95 +12 +12 1000.0 996.9 +13.6 +17.1
07 19.08 ЮВ 7 17 км слаб. ливневой дождь 10/0 200 м
[]
+14.9 +13.9 94 +13 +13 999.4 996.2
08 19.08 ЮВ 7 27 км слаб. ливневой дождь 10/0 200 м
[]
+15.6 +14.6 94 +14 +15 999.0 995.9
09 19.08 ЮВ 8 30 км слаб. ливневой дождь 10/10 200 м
[]
+16.5 +15.3 93 +15 +15 998.6 995.5
10 19.08 Ю 8 7000 м сильн. ливневой дождь 10/0 200 м
[]
+16.7 +15.8 94 +15 +16 999.4 996.3
11 19.08 Ю 5 >70 км в посл. час дождь 9/9 300 м
[]
+18.1 +15.8 86 +18 +18 1000.1 997.0
12 19.08 Ю 8 50 км 9/9 300 м
[]
+18.1 +14.4 79 +17 +17 1001.4 998.3
13 19.08 Ю 8 >70 км 6/0 600 м
[]
+18.4 +13.4 73 +18 +19 1002.1 999.0
14 19.08 Ю 7 65 км 4/4 600 м
[]
+18.6 +12.6 68 +19 +19 1003.0 999.9
15 19.08 Ю 6 50 км 6/6 600 м
[]
+18.9 +12.7 67 +19 +20 1003.8 1000.7
16 19.08 Ю 8 65 км 10/10 600 м
[]
+17.9 +12.2 69 +17 +17 1004.3 1001.2
17 19.08 Ю 6 65 км 1/0 600 м
[]
+17.5 +12.2 71 +17 +17 1005.1 1001.9
18 19.08 Ю 5 50 км 3/3 600 м
[]
+15.8 +11.9 78 +15 +15 1005.7 1002.5 +14.0 +19.3
19 19.08 Ю 5 55 км ясно +14.2 +11.1 82 +12 +12 1006.0 1002.8
20 19.08 Ю 5 55 км ясно +13.9 +10.9 82 +12 +12 1006.5 1003.3
21 19.08 Ю 5 50 км ясно +13.3 +10.8 85 +11 +11 1006.8 1003.6
22 19.08 Ю 6 50 км ясно +13.2 +10.9 86 +11 +11 1007.0 1003.8
23 19.08 Ю 4 50 км ясно +12.8 +10.8 88 +11 +11 1007.2 1004.0
00 20.08 Ю 5 50 км ясно +12.7 +11.0 89 +10 +10 1007.4 1004.2
01 20.08 ЮВ 5 45 км ясно +12.6 +11.1 91 +10 +10 1007.6 1004.4
02 20.08 Ю 5 45 км 1/0
[]
+12.5 +11.1 91 +10 +10 1007.8 1004.6
03 20.08 Ю 6 40 км ясно +12.7 +11.4 92 +10 +10 1008.0 1004.9
04 20.08 Ю 6 45 км ясно +13.4 +11.8 90 +11 +11 1008.5 1005.3
05 20.08 Ю 7 45 км 6/0 300 м
[]
+14.1 +12.2 88 +12 +12 1008.9 1005.7
06 20.08 Ю 7 50 км 8/8 300 м
[]
+15.3 +12.5 83 +13 +14 1009.0 1005.9 +12.3 +15.8
07 20.08 Ю 7 55 км 5/0 300 м
[]
+16.8 +12.9 78 +16 +16 1009.6 1006.4
08 20.08 Ю 7 50 км 9/0 600 м
[]
+17.2 +12.5 74 +16 +17 1010.0 1006.9
09 20.08 Ю 8 50 км 10/10 600 м
[]
+17.7 +11.5 67 +17 +17 1010.5 1007.3
10 20.08 Ю 7 50 км 4/0 1000 м
[]
+19.3 +11.7 61 +20 +22 1010.9 1007.8
11 20.08 Ю 9 55 км 9/9 1000 м
[]
+18.9 +10.2 57 +19 +19 1011.2 1008.1
12 20.08 Ю 8 50 км 9/9 1000 м
[]
+20.3 +10.7 54 +21 +22 комфорт 1011.5 1008.4
13 20.08 Ю 7 60 км 6/0 1000 м
[]
+19.8 +10.3 54 +21 +22 комфорт 1011.9 1008.7
14 20.08 Ю 8 55 км 8/0 1000 м
[]
+19.4 +10.2 55 +20 +20 1012.1 1009.0
15 20.08 ЮЗ 7 50 км 1/1 1000 м
[]
+19.6 +9.6 52 +20 +21 1012.4 1009.3
16 20.08 Ю 8 60 км ясно +18.3 +9.8 58 +18 +18 1012.7 1009.5
17 20.08 Ю 6 60 км ясно +17.3 +10.5 64 +16 +17 1013.1 1009.9
18 20.08 Ю 5 50 км 1/1 1000 м
[]
+16.0 +10.6 70 +15 +15 1013.4 1010.2 +15.3 +20.6
19 20.08 Ю 4 50 км ясно +14.1 +10.3 78 +13 +13 1013.7 1010.5
20 20.08 Ю 4 50 км ясно +13.4 +10.5 83 +12 +12 1014.0 1010.8
21 20.08 Ю 5 45 км 1/0
[]
+13.4 +10.6 83 +11 +11 1014.2 1011.0
22 20.08 Ю 5 40 км ясно +13.2 +10.9 86 +11 +11 1014.1 1010.9
23 20.08 Ю 5 40 км ясно +13.2 +11.2 88 +11 +11 1014.0 1010.8
00 21.08 Ю 5 40 км ясно +12.8 +11.2 90 +11 +11 1014.1 1010.9
01 21.08 Ю 5 35 км ясно +12.7 +11.3 91 +10 +10 1014.5 1011.2
02 21.08 ЮВ 4 30 км ясно +12.6 +11.3 92 +11 +11 1014.8 1011.6
03 21.08 Ю 5 35 км ясно +12.1 +11.0 93 +10 +10 1015.2 1012.0
04 21.08 Ю 6 40 км ясно +13.0 +11.5 91 +11 +11 1015.4 1012.1
05 21.08 Ю 7 50 км ясно +14.1 +11.8 86 +12 +12 1015.8 1012.6
06 21.08 Ю 7 50 км ясно +15.4 +11.9 80 +14 +14 1015.9 1012.8 +12.1 +16.0
07 21.08 Ю 8 55 км ясно +17.0 +12.2 73 +16 +17 1016.3 1013.1
08 21.08 Ю 7 55 км 1/0 600 м
[]
+18.0 +11.4 65 +17 +19 1016.6 1013.4
09 21.08 Ю 7 50 км 8/8 600 м
[]
+19.0 +10.9 59 +19 +20 1016.8 1013.7
10 21.08 ЮЗ 5 60 км 5/0 1000 м
[]
+19.1 +11.1 60 +20 +23 1017.0 1013.8
11 21.08 Ю 6 50 км 5/1 1000 м
[]
+19.7 +10.2 54 +21 +23 комфорт 1017.0 1013.9
12 21.08 ЮЗ 4 50 км 9/9 1500 м
[]
+19.3 +10.1 55 +20 +21 1016.9 1013.8
13 21.08 ЮЗ 5 55 км 5/3 1000 м
[]
+20.2 +10.3 53 +22 +23 комфорт 1016.6 1013.4
14 21.08 З 4 55 км 8/8 1000 м
[]
+19.6 +12.0 61 +21 +22 комфорт 1016.6 1013.4
15 21.08 ЮЗ 4 50 км ясно +19.3 +11.6 61 +20 +22 1016.6 1013.5
16 21.08 З 4 60 км ясно +17.8 +12.0 69 +18 +18 1016.7 1013.5
17 21.08 З 3 55 км ясно +16.6 +12.0 74 +16 +17 1017.2 1014.0
18 21.08 ЮЗ 3 50 км ясно +15.2 +11.8 80 +15 +15 1017.3 1014.1 +15.2 +20.8
19 21.08 ЮЗ 2 45 км 4/0
[]
+13.3 +11.2 87 +13 +13 1017.3 1014.1
20 21.08 ЮЗ 2 40 км 4/4 2000 м
[]
+12.2 +11.1 93 +11 +11 1017.3 1014.1
21 21.08 Ю 3 30 км 6/6
[]
+11.1 +10.3 95 +9 +9 1017.3 1014.0
22 21.08 Ю 2 35 км 9/9 2000 м
[]
+11.1 +10.4 95 +10 +10 1017.1 1013.8
23 21.08 Ю 2 17 км 10/10 2000 м
[]
+10.7 +10.2 97 +9 +9 1017.1 1013.8
00 22.08 Ю 2 20 км 9/6 1500 м
[]
+11.3 +10.9 97 +10 +10 1017.0 1013.8
01 22.08 ЮЗ 2 29 км 9/0 2000 м
[]
+12.0 +11.4 96 +11 +11 1017.1 1013.8
02 22.08 ЮЗ 2 200 м туман 1/0 50 м
[]
+9.8 +9.6 99 +8 +8 1017.3 1014.0
03 22.08 ЮЗ 2 400 м туман ясно +8.1 +7.7 97 +6 +6 1017.4 1014.2
04 22.08 ЮЗ 2 40 км в посл. час туман ясно +9.6 +9.2 97 +8 +8 1017.6 1014.3
05 22.08 ЮЗ 2 >70 км ясно +12.8 +10.8 88 +12 +13 1017.8 1014.5
06 22.08 ЮЗ 3 50 км ясно +14.4 +11.1 81 +13 +16 1017.9 1014.7 +7.1 +15.2
07 22.08 ЮЗ 4 65 км ясно +15.0 +10.3 73 +14 +17 1018.1 1014.9
08 22.08 ЮЗ 4 65 км ясно +16.1 +9.7 66 +15 +19 1018.4 1015.2
09 22.08 ЮЗ 6 50 км 3/3 600 м
[]
+16.6 +8.6 59 +16 +18 1018.5 1015.3
10 22.08 ЮЗ 5 60 км ясно +16.8 +9.1 60 +16 +20 1018.8 1015.6
11 22.08 ЮЗ 5 >70 км ясно +17.1 +8.0 55 +16 +21 1019.1 1015.9
12 22.08 ЮЗ 6 50 км ясно +17.6 +7.4 51 +17 +20 1019.3 1016.1
13 22.08 З 5 65 км ясно +17.0 +7.8 55 +16 +19 1019.4 1016.3
14 22.08 ЮЗ 6 65 км 1/0 1000 м
[]
+17.0 +7.8 55 +16 +18 1019.5 1016.3
15 22.08 ЮЗ 5 50 км ясно +17.2 +6.8 50 +17 +18 1019.5 1016.3
16 22.08 ЮЗ 5 >70 км ясно +16.2 +5.0 47 +15 +16 1019.5 1016.4
17 22.08 ЮЗ 3 65 км ясно +15.2 +5.5 52 +15 +15 1019.6 1016.4
18 22.08 Ю 2 50 км ясно +12.2 +5.5 64 +11 +11 1019.7 1016.4 +12.2 +17.7
19 22.08 Ю 3 60 км ясно +9.7 +5.1 73 +8 +8 1019.7 1016.4
20 22.08 Ю 1 50 км ясно +8.7 +5.9 83 +8 +8 1019.6 1016.4
21 22.08 ЮВ 1 50 км 5/5
[]
+8.1 +5.9 86 +7 +7 1019.6 1016.3
22 22.08 ЮВ 2 55 км 1/0 2000 м
[]
+8.3 +5.8 84 +6 +6 1019.1 1015.8
23 22.08 В 2 55 км 6/0
[]
+8.6 +6.0 84 +7 +7 1018.5 1015.3
00 23.08 ЮВ 2 50 км 10/0
[]
+9.4 +6.8 84 +8 +8 1018.0 1014.7
01 23.08 ЮВ 3 50 км слаб. дождь 9/8 300 м
[]
+10.4 +7.9 84 +8 +8 1017.4 1014.1
02 23.08 Ю 4 35 км слаб. ливневой дождь 9/6 300 м
[]
+10.9 +9.8 93 +8 +8 1016.8 1013.5
03 23.08 Ю 4 19 км слаб. дождь 10/10 1500 м
[]
+11.7 +11.1 96 +9 +9 1016.5 1013.3
04 23.08 ЮВ 4 40 км слаб. ливневой дождь 10/0 1500 м
[]
+12.0 +11.3 95 +10 +10 1016.2 1012.9
05 23.08 ЮВ 4 27 км в посл. час осадки 10/0 600 м
[]
+12.4 +11.6 95 +10 +11 1015.4 1012.2
06 23.08 ЮВ 5 40 км в посл. час дождь 10/10 200 м
[]
+12.9 +12.0 94 +11 +11 1014.8 1011.6 +7.3 +12.9
07 23.08 ЮВ 6 13 км ливневой дождь 10/0 200 м
[]
+13.1 +12.2 94 +11 +11 1014.5 1011.3
08 23.08 ЮВ 5 55 км в посл. час осадки 9/0 300 м
[]
+14.2 +12.9 92 +12 +14 1014.0 1010.8
09 23.08 ЮВ 6 50 км 9/9 300 м
[]
+14.9 +13.0 88 +13 +13 1013.6 1010.5
10 23.08 Ю 6 50 км слаб. ливневой дождь 9/9 300 м
[]
+15.6 +13.1 85 +14 +14 1013.6 1010.4
11 23.08 Ю 5 60 км 9/3 300 м
[]
+16.9 +13.1 78 +16 +18 1013.2 1010.0
12 23.08 Ю 8 50 км 8/8 600 м
[]
+17.1 +11.0 67 +16 +16 1012.8 1009.6
13 23.08 Ю 6 >70 км в посл. час дождь 9/5 600 м
[]
+17.0 +11.0 68 +16 +17 1012.5 1009.3
14 23.08 Ю 6 65 км 9/9 600 м
[]
+17.6 +10.8 64 +17 +17 1012.1 1009.0
15 23.08 ЮЗ 6 50 км 5/1 600 м
[]
+16.9 +9.9 63 +16 +17 1012.0 1008.9
16 23.08 ЮЗ 7 65 км 9/6 600 м
[]
+16.7 +9.2 61 +16 +16 1012.1 1008.9
17 23.08 ЮЗ 4 55 км 6/3 600 м
[]
+15.3 +10.1 71 +14 +14 1012.0 1008.8
18 23.08 Ю 3 50 км 3/1 600 м
[]
+13.1 +10.1 82 +12 +12 1011.8 1008.6 +12.9 +17.9
19 23.08 Ю 4 40 км 9/3
[]
+11.6 +10.0 90 +9 +9 1011.8 1008.6
20 23.08 Ю 2 40 км 6/3 300 м
[]
+11.8 +10.4 91 +11 +11 1012.0 1008.8
21 23.08 Ю 3 25 км 3/3 300 м
[]
+10.2 +9.6 96 +8 +8 1012.0 1008.7
22 23.08 Ю 3 25 км ясно +10.6 +10.3 98 +8 +8 1012.1 1008.9
23 23.08 ЮЗ 2 28 км ясно +10.9 +10.6 98 +9 +9 1012.5 1009.3
00 24.08 З 2 25 км 9/9 300 м
[]
+11.1 +10.8 98 +10 +10 1013.3 1010.1
01 24.08 З 2 55 км 9/9 300 м
[]
+12.1 +11.4 95 +11 +11 1013.8 1010.6
02 24.08 З 2 60 км 9/0 300 м
[]
+12.1 +10.9 92 +11 +11 1014.4 1011.2
03 24.08 З 4 14 км слаб. ливневой дождь 10/10 100 м
[]
+12.6 +12.0 96 +11 +11 1014.9 1011.6
04 24.08 З 5 14 км слаб. ливневой дождь 10/0 100 м
[]
+12.7 +11.7 94 +10 +10 1015.5 1012.3
05 24.08 СЗ 4 55 км 10/0 200 м
[]
+12.7 +11.6 93 +11 +11 1016.6 1013.4
06 24.08 СЗ 4 50 км 10/10 300 м
[]
+12.8 +11.3 91 +11 +11 1017.8 1014.5 +9.8 +13.1
07 24.08 СЗ 4 45 км 10/0 300 м
[]
+13.3 +11.6 89 +12 +13 1018.6 1015.4
08 24.08 СЗ 5 65 км 10/10 300 м
[]
+13.8 +11.3 85 +12 +12 1019.9 1016.7
09 24.08 СЗ 5 50 км 10/10 300 м
[]
+14.0 +10.6 80 +12 +12 1021.0 1017.8
10 24.08 СЗ 4 65 км 9/0 300 м
[]
+14.8 +10.8 77 +14 +16 1021.8 1018.6
11 24.08 СЗ 5 55 км 9/0 300 м
[]
+15.7 +10.6 72 +15 +17 1022.5 1019.3
12 24.08 СЗ 4 50 км 4/4 300 м
[]
+16.3 +10.9 70 +16 +18 1023.3 1020.1
13 24.08 СЗ 4 65 км ясно +16.8 +8.7 59 +16 +20 1024.0 1020.8
14 24.08 С 5 65 км ясно +16.5 +8.9 61 +16 +18 1024.4 1021.2
15 24.08 СЗ 4 50 км ясно +16.6 +8.0 57 +16 +18 1024.7 1021.5
16 24.08 СЗ 3 >70 км ясно +16.7 +8.2 57 +17 +17 1024.8 1021.6
17 24.08 СЗ 1 >70 км ясно +15.7 +8.0 60 +16 +17 1025.1 1021.9
18 24.08 З 2 50 км ясно +13.5 +9.7 78 +13 +13 1025.7 1022.4 +12.8 +17.1
19 24.08 Ю 1 55 км ясно +9.8 +8.2 90 +9 +9 1025.9 1022.6
20 24.08 штиль 0 50 км ясно +7.6 +6.8 95 +7 +7 1025.7 1022.4
21 24.08 Ю 2 50 км 3/0
[]
+6.8 +6.1 95 +4 +4 1026.0 1022.7
22 24.08 ЮВ 1 60 км 5/0
[]
+6.8 +5.1 89 +6 +6 1026.1 1022.8
23 24.08 Ю 1 35 км 9/0
[]
+6.6 +5.0 90 +5 +5 1026.3 1023.0
00 25.08 ЮВ 1 50 км 10/10 2000 м
[]
+7.5 +6.3 92 +7 +7 1026.5 1023.2
01 25.08 ЮВ 2 50 км 9/0 2000 м
[]
+8.1 +7.2 94 +6 +6 1026.4 1023.1
02 25.08 ЮВ 2 40 км 6/0
[]
+6.9 +6.2 95 +5 +5 1026.3 1023.0
03 25.08 ЮВ 3 45 км 1/1
[]
+8.3 +7.2 93 +6 +6 1026.1 1022.8
04 25.08 ЮВ 4 50 км 9/0
[]
+9.4 +8.0 91 +6 +7 1025.7 1022.4
05 25.08 ЮВ 4 60 км 10/0
[]
+10.8 +8.5 86 +8 +9 1025.6 1022.3
06 25.08 ЮВ 5 50 км 10/10 1500 м
[]
+12.1 +9.1 82 +10 +10 1025.1 1021.8 +6.3 +13.5
07 25.08 Ю 5 60 км 10/0 1500 м
[]
+12.9 +9.0 77 +11 +12 1024.8 1021.6
08 25.08 ЮВ 5 >70 км 10/9 1500 м
[]
+14.0 +8.7 70 +12 +12 1024.1 1020.9
09 25.08 Ю 7 50 км 9/1 1500 м
[]
+15.2 +8.7 65 +13 +14 1023.4 1020.2
10 25.08 Ю 6 65 км 9/1 1500 м
[]
+16.2 +9.1 63 +15 +17 1022.9 1019.7
11 25.08 Ю 7 60 км в посл. час дождь 5/1 1000 м
[]
+18.3 +10.1 59 +18 +19 1022.1 1018.9
12 25.08 Ю 7 50 км 1/1 1000 м
[]
+19.6 +10.9 57 +20 +22 1021.1 1017.9
13 25.08 Ю 5 35 км слаб. дождь 10/0 1000 м
[]
+17.8 +14.2 79 +17 +19 1020.8 1017.6

 

Местоположение метеостанции Круунупюу (Финляндия): широта 63.72 долгота 23.14 высота над уровнем моря 26 м.

В архиве по умолчанию представлена погода в Круунупюу за последнюю неделю. Архивные данные за месяц целиком и за предыдущие месяцы, начиная с января 2011 года, Вы можете получить, выбрав интересующий диапазон дат из раскрывающегося списка и нажав кнопку "Ввод!".


*Определитесь, кто Вы:
робот инопланетянин человек

Внимание! Время в таблицах - всемирное. Для получения местного времени необходимо прибавить поправку, которая равна 1 ч.

Смотрите также архив погоды в соседних городах и на ближайших метеорологических станциях:

Погода в Кокколе (Финляндия) (13 км)
Погода на Танкаре (Финляндия) (30 км)
Погода на Острове Каллан (Финляндия) (31 км)
Погода в Лаитале (Финляндия) (51 км)
Погода в Каухаве (Финляндия) (65 км)
Погода на Острове Улкокалла (Финляндия) (70 км)
Погода в Пуроле (Финляндия) (71 км)
Погода в Юливиеске (Финляндия) (86 км)
Погода в Алаярви Моксы (Финляндия) (90 км)
Погода в Йлистаро Пелма (Финляндия) (93 км)

Пояснения к столбцам:

Ветер - указаны скорость ветра в м/с - средняя за 10 мин, порывы в срок и между сроками (в фигурных скобках) и направление, откуда дует ветер: С - северный, СВ - северо-восточный, В - восточный, ЮВ - юго-восточный, Ю - южный, ЮЗ - юго-западный, З - западный, СЗ - северо-западный.
Видимость - горизонтальная дальность видимости в метрах или километрах. При видимости от 1 до 10 км при отсутствии осадков обычно наблюдается дымка, при ухудшении видимости до 1 км и менее - туман. В сухую погоду видимость может ухудшаться дымом, пылью или мглою.
Явления - указаны атмосферные явления, наблюдавшиеся в срок или в последний час перед сроком; фигурными скобками обозначены явления, наблюдавшиеся между сроками (за 1-3 часа до срока); квадратными скобками обозначены град или гололедные отложения с указанием их диаметра в мм.
Облачность - указаны через наклонную черту общая и нижняя облачность в баллах и высота нижней границы облаков в метрах; квадратными скобками обозначены формы облаков: Ci - перистые, Cs - перисто-слоистые, Cc - перисто-кучевые, Ac - высококучевые, As - высокослоистые, Sc - слоисто-кучевые, Ns - слоисто-дождевые, Cu - кучевые, Cb - кучево-дождевые. Подробнее классификацию облаков см. в Атласе облаков (PDF).
T - Температура воздуха - температура, измеренная на высоте 2 м над землей.
Td - Температура точки росы - температура, при понижении до которой содержащийся в воздухе водяной пар достигнет насыщения.
f - Относительная влажность воздуха - влажноcть воздуха, измеренная на высоте 2 м над землей.
Te - Эффективная температура - температура, которую ощущает одетый по сезону человек в тени. Характеристика душности погоды. При расчете учитывается влияние влажности воздуха и скорости ветра на теплоощущения человека.
Tes - Эффективная температура на солнце - температура, которую ощущает человек, с поправкой на солнечный нагрев. Характеристика знойности погоды. Зависит от высоты солнца над горизонтом, облачности и скорости ветра. Ночью, в пасмурную погоду, а также при ветре 12 м/с и более поправка равна нулю.
P - Атмосферное давление - приведенное к уровню моря атмосферное давление.
Po - Атмосферное давление - измеренное на уровне метеостанции атмосферное давление.
Tmin - Минимальная температура - минимум температуры воздуха на высоте 2 м над землей.
Tmax - Максимальная температура - максимум температуры воздуха на высоте 2 м над землей.
R - Количество осадков - Количество выпавших осадков за период времени, мм. При наведении курсора мыши на число - период времени, за который выпало указанное количество осадков.
R24 - Количество осадков - Количество выпавших осадков за 24 часа, мм.
S - Снежный покров - Высота снежного покрова, см. При наведении курсора мыши на число - состояние снежного покрова и степень покрытия местности в баллах.